Weather Search – Historical Data

Quick picks

Today Yesterday Last 7 days Last 30 days This month Last month Last year (same date) All of last year

Custom search

Database contains data from 2013-07-07 to 2026-09-05.

Saturday September 5, 2026

92 measurements (5-min interval)

Max temperature
12,4 °C
00:40
Min temperature
10,9 °C
07:05
Avg temperature
11,7 °C
Total rainfall
5,6 mm
Max wind gust
4,0 m/s
SSE · 00:45
Avg wind
0,8 m/s
Avg humidity
94 %
Avg pressure
994 hPa
Max UV index
0,0
00:00
Max solar radiation
9 W/m²
07:35
Avg radiation (daytime)
6 W/m²

Charts

Temperature and dew point
Wind and gusts
Wind rose · prevailing: NNE
Rainfall
Humidity
Air pressure
UV and solar radiation

Detailed data

TimeTemp °CDew °C Humid %Wind m/sGust m/s Dir °Rain mmPress. hPa UVSolar W/m²
00:00 12,311,2 931,3 2,745 0,00994,2 0,00
00:05 12,311,2 931,3 2,723 0,00994,2 0,00
00:10 12,311,2 931,3 2,745 0,00994,2 0,00
00:15 12,311,2 930,9 1,845 0,00994,3 0,00
00:20 12,311,2 930,9 1,845 0,00994,3 0,00
00:25 12,311,2 930,9 1,845 0,00994,3 0,00
00:30 12,311,2 930,4 1,345 0,00994,4 0,00
00:35 12,311,2 930,4 1,845 0,00994,4 0,00
00:40 12,411,3 930,4 1,845 0,00994,4 0,00
00:45 12,411,3 931,8 4,0158 0,00994,6 0,00
00:50 12,411,3 931,8 3,1158 0,00994,6 0,00
00:55 12,311,2 931,3 3,1158 0,00994,6 0,00
01:00 12,211,1 931,3 3,6135 0,00994,6 0,00
01:05 12,211,1 931,8 3,1135 0,25994,6 0,00
01:10 12,111,0 930,9 2,2135 0,25994,6 0,00
01:15 12,010,9 930,9 1,8135 0,25994,5 0,00
01:20 11,911,0 940,4 1,3135 0,51994,5 0,00
01:25 11,911,0 940,4 1,8135 0,51994,5 0,00
01:30 11,911,0 940,0 0,0 0,51994,3 0,00
01:35 11,810,9 940,0 0,4 0,25994,3 0,00
01:40 11,810,9 940,4 1,3135 0,25994,3 0,00
01:45 11,810,9 940,0 0,9 0,51994,2 0,00
01:50 11,810,8 940,4 1,3135 0,25994,2 0,00
01:55 11,810,8 940,9 1,8135 0,25994,2 0,00
02:00 11,710,9 950,9 1,8135 0,00994,1 0,00
02:05 11,710,9 950,4 1,8135 0,00994,1 0,00
02:10 11,710,9 950,4 1,8135 0,00994,1 0,00
02:15 11,710,9 950,9 2,290 0,00994,0 0,00
02:20 11,710,9 950,9 3,168 0,25994,0 0,00
02:25 11,710,9 950,9 3,168 0,00994,0 0,00
02:30 11,710,9 950,4 2,268 0,00994,1 0,00
02:35 11,710,9 950,4 1,868 0,00994,1 0,00
02:40 11,610,8 950,9 1,868 0,00994,1 0,00
02:45 11,610,8 950,4 1,368 0,00994,2 0,00
02:50 11,610,8 950,4 1,868 0,00994,2 0,00
02:55 11,610,8 950,4 2,268 0,00994,2 0,00
03:00 11,610,8 950,4 1,368 0,00994,1 0,00
03:05 11,610,6 940,4 2,268 0,00994,1 0,00
03:10 11,610,6 940,4 1,868 0,00994,1 0,00
03:15 11,610,6 940,4 1,868 0,00994,1 0,00
03:20 11,610,7 940,9 3,690 0,00994,1 0,00
03:25 11,610,7 940,9 2,290 0,00994,1 0,00
03:30 11,610,7 941,3 3,690 0,00994,2 0,00
03:35 11,710,7 940,4 2,290 0,25994,2 0,00
03:40 11,710,7 940,9 2,790 0,25994,2 0,00
03:45 11,710,7 940,4 1,390 0,00994,2 0,00
03:50 11,710,7 940,4 2,290 0,25994,2 0,00
03:55 11,610,7 940,9 2,290 0,25994,2 0,00
04:00 11,610,7 940,4 2,790 0,00994,2 0,00
04:05 11,610,6 940,9 2,290 0,00994,2 0,00
04:10 11,610,6 940,9 1,868 0,00994,2 0,00
04:15 11,610,7 941,3 2,245 0,25994,2 0,00
04:20 11,610,7 940,9 2,245 0,00994,2 0,00
04:25 11,610,7 940,9 2,245 0,00994,2 0,00
04:30 11,710,7 940,9 2,245 0,00994,2 0,00
04:35 11,710,7 940,9 2,245 0,00994,2 0,00
04:40 11,710,7 941,3 2,745 0,00994,2 0,00
04:45 11,710,7 940,4 1,845 0,00994,2 0,00
04:50 11,710,7 940,9 1,845 0,25994,2 0,00
04:55 11,710,7 941,3 2,723 0,00994,2 0,00
05:00 11,710,7 941,3 2,723 0,00994,2 0,00
05:05 11,610,7 941,8 2,723 0,00994,2 0,00
05:10 11,610,7 941,3 2,723 0,00994,2 0,00
05:15 11,610,7 941,8 3,645 0,00994,3 0,00
05:20 11,610,7 941,8 3,145 0,00994,3 0,00
05:25 11,610,5 931,3 3,145 0,00994,3 0,00
05:30 11,610,5 930,9 2,70 0,00994,5 0,00
05:35 11,610,5 931,8 3,123 0,00994,5 0,00
05:40 11,610,5 931,8 2,723 0,00994,5 0,00
05:45 11,610,5 931,3 2,723 0,00994,7 0,00
05:50 11,610,5 931,3 2,223 0,00994,7 0,00
05:55 11,510,4 931,3 2,723 0,00994,7 0,00
06:00 11,410,4 931,3 2,20 0,00994,7 0,00
06:05 11,410,4 931,3 2,20 0,00994,7 0,00
06:10 11,410,4 930,9 2,20 0,00994,7 0,00
06:15 11,410,4 931,3 2,223 0,00994,8 0,00
06:20 11,410,1 921,3 2,223 0,00994,8 0,00
06:25 11,410,1 921,3 2,223 0,00994,8 0,00
06:30 11,410,1 920,9 1,823 0,00995,2 0,00
06:35 11,310,1 920,0 0,9 0,00995,2 0,00
06:40 11,410,1 920,0 0,0 0,00995,2 0,00
06:45 11,510,2 920,0 0,0 0,00995,2 0,00
06:50 11,410,1 920,0 0,0 0,00995,2 0,00
06:55 11,210,0 920,0 0,0 0,00995,2 0,00
07:00 11,110,0 930,0 0,0 0,00995,4 0,00
07:05 10,99,8 930,0 0,0 0,00995,4 0,00
07:10 10,99,8 930,0 0,0 0,00995,4 0,04
07:15 11,09,9 930,0 0,0 0,00995,7 0,05
07:20 11,09,9 930,0 0,0 0,00995,7 0,05
07:25 10,910,0 940,0 0,0 0,00995,7 0,07
07:30 10,910,0 940,0 0,0 0,00995,8 0,08
07:35 10,910,0 940,0 0,0 0,00995,8 0,09